WAT2757 KSDF-KELP

Flight info

Callsign WAT2757
Flight time N/A
Altitude 38000
Route GTGON1 TERGE FAM J78 TUL IFI TXO CME SAMMR3
Aircraft A338/H-SADE1E2E3GHIJ3J5M1P2RWXY/LB2D1

Departure

Time 2026-05-08 05:33
Airport Louisville Muhammad Ali International Airport (KSDF)

Arrival

Time N/A
Airport El Paso International Airport (KELP)
Time Latitude Longitude Altitude Speed Heading
2026-05-08 05:06 38.18277 -85.74058 488 ft 0 kts 278°
2026-05-08 05:20 38.18277 -85.74057 489 ft 1 kts 278°
2026-05-08 05:21 38.18274 -85.74039 489 ft 2 kts 278°
2026-05-08 05:21 38.18272 -85.74020 489 ft 2 kts 283°
2026-05-08 05:21 38.18267 -85.74002 489 ft 2 kts 303°
2026-05-08 05:21 38.18257 -85.73987 489 ft 2 kts 318°
2026-05-08 05:22 38.18245 -85.73976 489 ft 2 kts 327°
2026-05-08 05:22 38.18235 -85.73963 489 ft 2 kts 295°
2026-05-08 05:22 38.18230 -85.73945 489 ft 2 kts 272°
2026-05-08 05:22 38.18232 -85.73926 489 ft 2 kts 249°
2026-05-08 05:23 38.18238 -85.73910 489 ft 2 kts 236°
2026-05-08 05:23 38.18247 -85.73893 489 ft 2 kts 239°
2026-05-08 05:23 38.18250 -85.73888 489 ft 0 kts 239°
2026-05-08 05:25 38.18249 -85.73888 489 ft 0 kts 239°
2026-05-08 05:25 38.18249 -85.73889 489 ft 1 kts 239°
2026-05-08 05:25 38.18240 -85.73908 489 ft 3 kts 239°
2026-05-08 05:26 38.18223 -85.73946 489 ft 6 kts 239°
2026-05-08 05:26 38.18198 -85.74000 489 ft 8 kts 239°
2026-05-08 05:26 38.18165 -85.74071 488 ft 10 kts 239°
2026-05-08 05:26 38.18130 -85.74149 487 ft 11 kts 239°
2026-05-08 05:27 38.18081 -85.74204 487 ft 10 kts 186°
2026-05-08 05:27 38.18018 -85.74231 487 ft 10 kts 241°
2026-05-08 05:27 38.18020 -85.74332 487 ft 12 kts 290°
2026-05-08 05:27 38.18041 -85.74433 487 ft 10 kts 258°
2026-05-08 05:28 38.17971 -85.74470 487 ft 12 kts 170°
2026-05-08 05:28 38.17876 -85.74444 486 ft 14 kts 166°
2026-05-08 05:28 38.17778 -85.74412 486 ft 15 kts 165°
2026-05-08 05:28 38.17672 -85.74376 486 ft 16 kts 166°
2026-05-08 05:29 38.17550 -85.74336 485 ft 19 kts 165°
2026-05-08 05:29 38.17414 -85.74290 483 ft 21 kts 163°
2026-05-08 05:29 38.17257 -85.74240 481 ft 24 kts 165°
2026-05-08 05:29 38.17083 -85.74183 479 ft 27 kts 166°
2026-05-08 05:30 38.16890 -85.74120 476 ft 30 kts 165°
2026-05-08 05:30 38.16677 -85.74048 472 ft 32 kts 165°
2026-05-08 05:30 38.16452 -85.73973 470 ft 34 kts 165°
2026-05-08 05:30 38.16225 -85.73900 468 ft 31 kts 165°
2026-05-08 05:31 38.16029 -85.73834 467 ft 26 kts 165°
2026-05-08 05:31 38.15894 -85.73792 466 ft 13 kts 177°
2026-05-08 05:31 38.15851 -85.73834 466 ft 6 kts 246°
2026-05-08 05:31 38.15842 -85.73869 466 ft 2 kts 253°
2026-05-08 05:32 38.15841 -85.73880 466 ft 1 kts 261°
2026-05-08 05:32 38.15843 -85.73905 466 ft 4 kts 291°
2026-05-08 05:32 38.15877 -85.73943 466 ft 8 kts 333°
2026-05-08 05:32 38.15944 -85.73971 466 ft 21 kts 343°
2026-05-08 05:33 38.16286 -85.74084 468 ft 79 kts 345°
2026-05-08 05:33 38.17014 -85.74322 478 ft 132 kts 345°
2026-05-08 05:33 38.18045 -85.74665 597 ft 166 kts 345°
2026-05-08 05:33 38.19109 -85.75046 1235 ft 157 kts 335°
2026-05-08 05:34 38.20168 -85.75725 1542 ft 177 kts 330°
2026-05-08 05:34 38.21250 -85.76446 2201 ft 176 kts 333°
2026-05-08 05:34 38.22340 -85.77187 2778 ft 179 kts 330°
2026-05-08 05:34 38.23450 -85.77950 3408 ft 186 kts 330°
2026-05-08 05:35 38.24568 -85.78721 4324 ft 187 kts 332°
2026-05-08 05:35 38.25701 -85.79504 5261 ft 187 kts 330°
2026-05-08 05:35 38.26851 -85.80302 5655 ft 191 kts 331°
2026-05-08 05:35 38.28027 -85.81216 5795 ft 204 kts 314°
2026-05-08 05:36 38.28712 -85.82831 5980 ft 214 kts 278°
2026-05-08 05:36 38.28629 -85.84782 6147 ft 231 kts 262°
2026-05-08 05:36 38.28462 -85.86910 6501 ft 245 kts 266°
2026-05-08 05:36 38.28218 -85.89098 6798 ft 261 kts 251°
2026-05-08 05:37 38.27162 -85.91061 7263 ft 273 kts 222°
2026-05-08 05:37 38.25582 -85.92426 7911 ft 276 kts 217°
2026-05-08 05:37 38.24015 -85.93864 8523 ft 279 kts 218°
2026-05-08 05:37 38.22428 -85.95328 9143 ft 281 kts 219°
2026-05-08 05:38 38.21067 -85.97081 9690 ft 281 kts 241°
2026-05-08 05:38 38.20330 -85.99392 10281 ft 281 kts 252°
2026-05-08 05:38 38.19618 -86.01779 10570 ft 297 kts 251°
2026-05-08 05:38 38.18870 -86.04297 10800 ft 314 kts 251°
2026-05-08 05:39 38.18066 -86.06982 11031 ft 330 kts 251°
2026-05-08 05:39 38.17226 -86.09788 11260 ft 346 kts 251°
2026-05-08 05:39 38.16359 -86.12682 11795 ft 352 kts 251°
2026-05-08 05:39 38.15486 -86.15585 12439 ft 353 kts 252°
2026-05-08 05:40 38.14609 -86.18506 12970 ft 356 kts 252°
2026-05-08 05:40 38.13722 -86.21459 13499 ft 359 kts 252°
2026-05-08 05:40 38.12815 -86.24471 14031 ft 361 kts 252°
2026-05-08 05:40 38.11919 -86.27446 14599 ft 362 kts 252°
2026-05-08 05:41 38.11011 -86.30450 15200 ft 361 kts 252°
2026-05-08 05:41 38.10113 -86.33427 15762 ft 361 kts 252°
2026-05-08 05:41 38.09215 -86.36391 16290 ft 362 kts 252°
2026-05-08 05:41 38.08304 -86.39401 16811 ft 362 kts 253°
2026-05-08 05:42 38.07399 -86.42381 17318 ft 362 kts 253°
2026-05-08 05:42 38.06490 -86.45378 17818 ft 362 kts 253°
2026-05-08 05:42 38.05584 -86.48359 18300 ft 362 kts 253°
2026-05-08 05:42 38.04680 -86.51337 18760 ft 362 kts 253°
2026-05-08 05:43 38.03761 -86.54353 19210 ft 362 kts 253°
2026-05-08 05:43 38.02862 -86.57327 19646 ft 361 kts 255°
2026-05-08 05:43 38.02424 -86.60413 20022 ft 357 kts 269°
2026-05-08 05:43 38.02210 -86.63596 20421 ft 358 kts 266°
2026-05-08 05:44 38.01992 -86.66729 20791 ft 359 kts 267°
2026-05-08 05:44 38.01756 -86.69900 21171 ft 360 kts 267°
2026-05-08 05:44 38.01526 -86.73090 21548 ft 361 kts 266°
2026-05-08 05:44 38.01291 -86.76277 21901 ft 362 kts 267°
2026-05-08 05:45 38.01057 -86.79448 22241 ft 363 kts 267°
2026-05-08 05:45 38.00817 -86.82676 22582 ft 363 kts 266°
2026-05-08 05:45 38.00578 -86.85869 22908 ft 364 kts 266°
2026-05-08 05:45 38.00317 -86.89062 23220 ft 365 kts 266°
2026-05-08 05:46 38.00055 -86.92280 23524 ft 366 kts 266°
2026-05-08 05:46 37.99789 -86.95496 23826 ft 367 kts 266°
2026-05-08 05:46 37.99520 -86.98753 24118 ft 368 kts 266°
2026-05-08 05:46 37.99252 -87.01986 24391 ft 369 kts 266°
2026-05-08 05:47 37.98983 -87.05219 24675 ft 370 kts 266°
2026-05-08 05:47 37.98708 -87.08511 24955 ft 371 kts 266°
2026-05-08 05:47 37.98436 -87.11763 25236 ft 372 kts 266°
2026-05-08 05:47 37.98161 -87.15025 25529 ft 372 kts 266°
2026-05-08 05:48 37.97886 -87.18289 25817 ft 373 kts 266°
2026-05-08 05:48 37.97609 -87.21563 26104 ft 374 kts 266°
2026-05-08 05:48 37.97329 -87.24857 26388 ft 375 kts 266°
2026-05-08 05:48 37.97046 -87.28178 26676 ft 375 kts 266°
2026-05-08 05:49 37.96767 -87.31465 26956 ft 376 kts 266°
2026-05-08 05:49 37.96482 -87.34759 27234 ft 376 kts 266°
2026-05-08 05:49 37.96197 -87.38074 27507 ft 377 kts 266°
2026-05-08 05:49 37.95909 -87.41431 27768 ft 378 kts 266°
2026-05-08 05:50 37.95621 -87.44743 28014 ft 379 kts 265°
2026-05-08 05:50 37.95332 -87.48090 28266 ft 379 kts 265°
2026-05-08 05:50 37.95035 -87.51442 28508 ft 380 kts 265°
2026-05-08 05:50 37.94746 -87.54775 28734 ft 381 kts 265°
2026-05-08 05:51 37.94449 -87.58144 28958 ft 381 kts 265°
2026-05-08 05:51 37.94152 -87.61525 29165 ft 382 kts 265°
2026-05-08 05:51 37.93853 -87.64886 29396 ft 383 kts 265°
2026-05-08 05:51 37.93550 -87.68269 29702 ft 382 kts 265°
2026-05-08 05:52 37.93255 -87.71647 30038 ft 380 kts 265°
2026-05-08 05:52 37.92955 -87.74998 30369 ft 378 kts 265°
2026-05-08 05:52 37.92652 -87.78308 30698 ft 376 kts 264°
2026-05-08 05:52 37.92351 -87.81556 31048 ft 374 kts 265°
2026-05-08 05:53 37.92046 -87.84826 31409 ft 371 kts 264°
2026-05-08 05:53 37.91741 -87.88108 31766 ft 369 kts 264°
2026-05-08 05:53 37.91442 -87.91296 32104 ft 366 kts 264°
2026-05-08 05:53 37.91143 -87.94488 32449 ft 364 kts 264°
2026-05-08 05:54 37.90846 -87.97671 32796 ft 361 kts 264°
2026-05-08 05:54 37.90546 -88.00821 33129 ft 358 kts 264°
2026-05-08 05:54 37.90253 -88.03944 33447 ft 355 kts 264°
2026-05-08 05:54 37.89954 -88.07070 33765 ft 352 kts 264°
2026-05-08 05:55 37.89657 -88.10178 34068 ft 349 kts 264°
2026-05-08 05:55 37.89062 -88.16393 34085 ft 352 kts 264°
2026-05-08 05:56 37.88480 -88.22478 34114 ft 347 kts 264°
2026-05-08 05:56 37.87891 -88.28545 34075 ft 344 kts 264°
2026-05-08 05:57 37.87308 -88.34537 34067 ft 344 kts 264°
2026-05-08 05:57 37.86721 -88.40579 34064 ft 344 kts 264°
2026-05-08 05:58 37.86131 -88.46584 34064 ft 345 kts 264°
2026-05-08 05:58 37.85533 -88.52597 34067 ft 344 kts 264°
2026-05-08 05:59 37.84935 -88.58643 34061 ft 344 kts 264°
2026-05-08 05:59 37.84335 -88.64638 34059 ft 343 kts 264°
2026-05-08 06:00 37.83728 -88.70676 34084 ft 344 kts 264°
2026-05-08 06:00 37.83123 -88.76695 34086 ft 344 kts 264°
2026-05-08 06:01 37.82515 -88.82730 34082 ft 344 kts 263°
2026-05-08 06:01 37.81900 -88.88727 34080 ft 344 kts 263°
2026-05-08 06:02 37.81282 -88.94783 34076 ft 344 kts 263°
2026-05-08 06:02 37.80663 -89.00774 34070 ft 344 kts 263°
2026-05-08 06:03 37.80042 -89.06797 34068 ft 344 kts 263°
2026-05-08 06:03 37.79417 -89.12801 34069 ft 344 kts 263°
2026-05-08 06:04 37.78787 -89.18808 34066 ft 344 kts 263°
2026-05-08 06:04 37.78157 -89.24826 34065 ft 344 kts 263°
2026-05-08 06:05 37.77522 -89.30845 34057 ft 345 kts 263°
2026-05-08 06:05 37.76878 -89.36901 34056 ft 345 kts 263°
2026-05-08 06:06 37.76236 -89.42924 34056 ft 346 kts 263°
2026-05-08 06:06 37.75590 -89.48946 34035 ft 345 kts 263°
2026-05-08 06:07 37.74944 -89.54936 34030 ft 339 kts 263°
2026-05-08 06:07 37.74307 -89.60797 34054 ft 334 kts 263°
2026-05-08 06:08 37.73671 -89.66643 34062 ft 336 kts 262°
2026-05-08 06:08 37.73032 -89.72521 34067 ft 336 kts 262°
2026-05-08 06:09 37.72385 -89.78391 34068 ft 335 kts 262°
2026-05-08 06:09 37.71741 -89.84227 34063 ft 336 kts 263°
2026-05-08 06:10 37.71089 -89.90108 34059 ft 336 kts 262°
2026-05-08 06:10 37.70438 -89.95968 34058 ft 337 kts 262°
2026-05-08 06:11 37.69778 -90.01868 34058 ft 337 kts 262°
2026-05-08 06:11 37.69123 -90.07725 34056 ft 336 kts 262°
2026-05-08 06:12 37.68460 -90.13589 34055 ft 337 kts 262°
2026-05-08 06:12 37.67791 -90.19455 34052 ft 337 kts 262°
2026-05-08 06:13 37.66928 -90.25290 34048 ft 338 kts 255°
2026-05-08 06:13 37.65543 -90.30976 34051 ft 339 kts 256°
2026-05-08 06:14 37.64173 -90.36694 34052 ft 339 kts 256°
2026-05-08 06:14 37.62808 -90.42400 34052 ft 339 kts 256°
2026-05-08 06:15 37.61441 -90.48111 34048 ft 339 kts 256°
2026-05-08 06:15 37.60064 -90.53814 34048 ft 339 kts 256°
2026-05-08 06:16 37.58685 -90.59523 34046 ft 339 kts 256°
2026-05-08 06:16 37.57306 -90.65237 34047 ft 339 kts 255°
2026-05-08 06:17 37.55223 -90.73856 34067 ft 340 kts 255°
2026-05-08 06:17 37.53828 -90.79576 34068 ft 340 kts 255°
2026-05-08 06:18 37.52433 -90.85312 34066 ft 341 kts 255°
2026-05-08 06:18 37.51034 -90.91017 34065 ft 341 kts 255°
2026-05-08 06:19 37.49637 -90.96748 34063 ft 341 kts 255°
2026-05-08 06:19 37.48230 -91.02478 34063 ft 341 kts 255°
2026-05-08 06:20 37.46816 -91.08211 34057 ft 342 kts 255°
2026-05-08 06:20 37.45406 -91.13944 34057 ft 342 kts 255°
2026-05-08 06:21 37.43982 -91.19709 34059 ft 342 kts 255°
2026-05-08 06:21 37.42560 -91.25446 34052 ft 343 kts 255°
2026-05-08 06:22 37.41130 -91.31203 34046 ft 343 kts 255°
2026-05-08 06:22 37.39692 -91.36979 34043 ft 344 kts 255°
2026-05-08 06:23 37.38256 -91.42741 34047 ft 344 kts 255°
2026-05-08 06:23 37.36813 -91.48513 34035 ft 345 kts 255°
2026-05-08 06:24 37.35355 -91.54325 34028 ft 345 kts 255°
2026-05-08 06:24 37.33900 -91.60108 34027 ft 345 kts 255°
2026-05-08 06:25 37.32447 -91.65875 34030 ft 345 kts 254°
2026-05-08 06:25 37.30981 -91.71682 34049 ft 347 kts 254°
2026-05-08 06:26 37.29512 -91.77501 34051 ft 346 kts 255°
2026-05-08 06:26 37.28046 -91.83295 34045 ft 346 kts 255°
2026-05-08 06:27 37.26584 -91.89050 34047 ft 346 kts 254°
2026-05-08 06:27 37.25096 -91.94873 34045 ft 346 kts 254°
2026-05-08 06:28 37.23627 -92.00627 34039 ft 346 kts 254°
2026-05-08 06:28 37.22169 -92.06346 34043 ft 346 kts 255°
2026-05-08 06:29 37.20677 -92.12152 34048 ft 346 kts 254°
2026-05-08 06:29 37.19186 -92.17955 34043 ft 348 kts 254°
2026-05-08 06:30 37.17686 -92.23764 34036 ft 349 kts 254°
2026-05-08 06:30 37.16191 -92.29555 34036 ft 349 kts 254°
2026-05-08 06:31 37.14685 -92.35382 34034 ft 349 kts 254°
2026-05-08 06:31 37.13179 -92.41180 34030 ft 348 kts 254°
2026-05-08 06:32 37.11669 -92.46994 34031 ft 348 kts 254°
2026-05-08 06:32 37.10155 -92.52793 34030 ft 348 kts 254°
2026-05-08 06:33 37.08647 -92.58566 34029 ft 348 kts 253°
2026-05-08 06:33 37.07130 -92.64361 34026 ft 348 kts 254°
2026-05-08 06:34 37.05609 -92.70156 34055 ft 349 kts 253°
2026-05-08 06:34 37.04076 -92.75996 34047 ft 349 kts 253°
2026-05-08 06:35 37.02552 -92.81776 34047 ft 349 kts 253°
2026-05-08 06:35 37.01023 -92.87560 34049 ft 349 kts 253°
2026-05-08 06:36 36.99485 -92.93376 34046 ft 349 kts 253°
2026-05-08 06:36 36.97951 -92.99151 34047 ft 349 kts 253°
2026-05-08 06:37 36.96415 -93.04928 34042 ft 348 kts 253°
2026-05-08 06:37 36.94873 -93.10708 34033 ft 349 kts 253°
2026-05-08 06:38 36.93318 -93.16533 34027 ft 350 kts 253°
2026-05-08 06:38 36.91770 -93.22311 34028 ft 350 kts 253°
2026-05-08 06:39 36.90218 -93.28095 34025 ft 349 kts 253°
2026-05-08 06:39 36.88654 -93.33918 34032 ft 350 kts 253°
2026-05-08 06:40 36.87091 -93.39713 34035 ft 350 kts 253°
2026-05-08 06:40 36.85536 -93.45485 34036 ft 349 kts 253°
2026-05-08 06:41 36.83970 -93.51260 34028 ft 349 kts 253°
2026-05-08 06:41 36.82396 -93.57058 34025 ft 349 kts 253°
2026-05-08 06:42 36.80823 -93.62842 34020 ft 349 kts 253°
2026-05-08 06:42 36.79252 -93.68606 34047 ft 349 kts 252°
2026-05-08 06:43 36.77675 -93.74383 34042 ft 349 kts 252°
2026-05-08 06:43 36.76102 -93.80137 34041 ft 349 kts 252°
2026-05-08 06:44 36.74515 -93.85914 34034 ft 348 kts 252°
2026-05-08 06:44 36.72943 -93.91640 34033 ft 348 kts 252°
2026-05-08 06:45 36.71363 -93.97385 34036 ft 347 kts 252°
2026-05-08 06:45 36.69780 -94.03110 34031 ft 347 kts 252°
2026-05-08 06:46 36.68204 -94.08817 34036 ft 347 kts 252°
2026-05-08 06:46 36.66604 -94.14574 34030 ft 349 kts 252°
2026-05-08 06:47 36.65008 -94.20319 34028 ft 350 kts 252°
2026-05-08 06:47 36.63401 -94.26093 34033 ft 349 kts 252°
2026-05-08 06:48 36.61803 -94.31819 34036 ft 350 kts 252°
2026-05-08 06:48 36.60192 -94.37584 34036 ft 350 kts 252°
2026-05-08 06:49 36.58575 -94.43353 34035 ft 350 kts 252°
2026-05-08 06:49 36.56963 -94.49088 34031 ft 349 kts 252°
2026-05-08 06:50 36.55349 -94.54825 34026 ft 350 kts 252°
2026-05-08 06:50 36.53721 -94.60596 34016 ft 350 kts 252°
2026-05-08 06:51 36.52098 -94.66344 34020 ft 351 kts 251°
2026-05-08 06:51 36.50460 -94.72134 34025 ft 352 kts 251°
2026-05-08 06:52 36.48816 -94.77931 34025 ft 352 kts 251°
2026-05-08 06:52 36.47167 -94.83702 34026 ft 352 kts 251°
2026-05-08 06:53 36.45530 -94.89469 34023 ft 353 kts 251°
2026-05-08 06:53 36.43879 -94.95247 34018 ft 353 kts 251°
2026-05-08 06:54 36.42214 -95.01056 34017 ft 354 kts 251°
2026-05-08 06:54 36.40562 -95.06824 34008 ft 354 kts 251°
2026-05-08 06:55 36.38885 -95.12648 34008 ft 354 kts 251°
2026-05-08 06:55 36.37221 -95.18424 34001 ft 354 kts 251°
2026-05-08 06:56 36.35554 -95.24206 34003 ft 354 kts 251°
2026-05-08 06:56 36.33870 -95.30012 34000 ft 354 kts 251°
2026-05-08 06:57 36.32191 -95.35820 33997 ft 354 kts 251°
2026-05-08 06:57 36.30514 -95.41602 34005 ft 354 kts 251°
2026-05-08 06:58 36.28828 -95.47385 34002 ft 354 kts 251°
2026-05-08 06:58 36.27136 -95.53190 34002 ft 354 kts 251°
2026-05-08 06:59 36.25448 -95.58957 33998 ft 354 kts 251°
2026-05-08 06:59 36.23761 -95.64719 33998 ft 353 kts 251°
2026-05-08 07:00 36.22063 -95.70506 34022 ft 354 kts 251°
2026-05-08 07:00 36.20353 -95.76311 34021 ft 354 kts 250°
2026-05-08 07:01 36.19014 -95.82209 34021 ft 353 kts 258°
2026-05-08 07:01 36.18048 -95.88203 34018 ft 353 kts 257°
2026-05-08 07:02 36.17052 -95.94182 34016 ft 352 kts 257°
2026-05-08 07:02 36.16046 -96.00169 34012 ft 352 kts 257°
2026-05-08 07:03 36.15041 -96.06119 34013 ft 352 kts 257°
2026-05-08 07:03 36.14035 -96.12082 34010 ft 352 kts 257°
2026-05-08 07:04 36.13024 -96.18059 34008 ft 352 kts 257°
2026-05-08 07:04 36.11998 -96.24057 34008 ft 353 kts 257°
2026-05-08 07:05 36.10984 -96.30026 34008 ft 353 kts 257°
2026-05-08 07:05 36.09949 -96.36034 34007 ft 354 kts 257°
2026-05-08 07:06 36.08920 -96.42033 34002 ft 354 kts 257°
2026-05-08 07:06 36.07885 -96.48032 33997 ft 355 kts 257°
2026-05-08 07:07 36.06847 -96.54031 33990 ft 356 kts 257°
2026-05-08 07:07 36.05794 -96.60107 33984 ft 358 kts 257°
2026-05-08 07:08 36.04739 -96.66151 33995 ft 359 kts 256°
2026-05-08 07:08 36.03672 -96.72269 34004 ft 360 kts 257°
2026-05-08 07:09 36.02605 -96.78386 34004 ft 361 kts 257°
2026-05-08 07:09 36.01537 -96.84469 34003 ft 362 kts 257°
2026-05-08 07:10 36.00447 -96.90646 33995 ft 364 kts 257°
2026-05-08 07:10 35.99357 -96.96801 33986 ft 365 kts 257°
2026-05-08 07:11 35.98264 -97.02977 33973 ft 363 kts 256°
2026-05-08 07:11 35.97179 -97.09082 33984 ft 362 kts 256°
2026-05-08 07:12 35.96080 -97.15231 33986 ft 364 kts 256°
2026-05-08 07:12 35.94982 -97.21358 33982 ft 364 kts 256°
2026-05-08 07:13 35.93871 -97.27555 33981 ft 365 kts 256°
2026-05-08 07:13 35.92757 -97.33727 33977 ft 367 kts 256°
2026-05-08 07:14 35.91639 -97.39907 33976 ft 367 kts 256°
2026-05-08 07:14 35.90509 -97.46137 33976 ft 368 kts 256°
2026-05-08 07:15 35.89374 -97.52383 33981 ft 369 kts 256°
2026-05-08 07:15 35.88242 -97.58611 33981 ft 369 kts 256°
2026-05-08 07:16 35.87099 -97.64848 33978 ft 370 kts 256°
2026-05-08 07:16 35.85937 -97.71149 33999 ft 372 kts 256°
2026-05-08 07:17 35.84786 -97.77407 33997 ft 372 kts 256°
2026-05-08 07:17 35.83627 -97.83701 33990 ft 372 kts 256°
2026-05-08 07:18 35.82468 -97.89944 33989 ft 372 kts 256°
2026-05-08 07:18 35.81307 -97.96206 33989 ft 372 kts 256°
2026-05-08 07:19 35.80022 -98.02448 33992 ft 372 kts 252°
2026-05-08 07:19 35.78494 -98.08598 33998 ft 373 kts 252°
2026-05-08 07:20 35.76956 -98.14796 34001 ft 373 kts 252°
2026-05-08 07:20 35.75429 -98.20939 34005 ft 373 kts 252°
2026-05-08 07:21 35.73898 -98.27089 34004 ft 373 kts 253°
2026-05-08 07:21 35.72350 -98.33282 34003 ft 374 kts 253°
2026-05-08 07:22 35.70808 -98.39443 34006 ft 374 kts 252°
2026-05-08 07:22 35.69250 -98.45640 34005 ft 375 kts 252°
2026-05-08 07:23 35.67701 -98.51809 34008 ft 375 kts 252°
2026-05-08 07:23 35.66135 -98.58015 34004 ft 376 kts 252°
2026-05-08 07:24 35.64568 -98.64212 34007 ft 377 kts 252°
2026-05-08 07:24 35.62992 -98.70422 34024 ft 378 kts 252°
2026-05-08 07:25 35.61396 -98.76702 34020 ft 380 kts 252°
2026-05-08 07:26 35.59008 -98.86074 34015 ft 382 kts 252°
2026-05-08 07:26 35.57399 -98.92369 34015 ft 383 kts 252°
2026-05-08 07:27 35.55774 -98.98715 34012 ft 385 kts 252°
2026-05-08 07:27 35.54149 -99.05042 34010 ft 386 kts 252°
2026-05-08 07:28 35.52513 -99.11396 34007 ft 388 kts 252°
2026-05-08 07:28 35.50854 -99.17820 34005 ft 390 kts 252°
2026-05-08 07:29 35.49195 -99.24232 34000 ft 392 kts 252°
2026-05-08 07:29 35.47520 -99.30689 33995 ft 393 kts 252°
2026-05-08 07:30 35.45845 -99.37128 33990 ft 395 kts 252°
2026-05-08 07:30 35.44145 -99.43650 33985 ft 397 kts 252°
2026-05-08 07:31 35.42448 -99.50145 33983 ft 399 kts 252°
2026-05-08 07:31 35.40727 -99.56717 33982 ft 400 kts 252°
2026-05-08 07:32 35.39002 -99.63284 33983 ft 401 kts 252°
2026-05-08 07:32 35.37260 -99.69898 34001 ft 402 kts 251°
2026-05-08 07:33 35.35521 -99.76488 34000 ft 403 kts 251°
2026-05-08 07:33 35.33781 -99.83062 33996 ft 404 kts 251°
2026-05-08 07:34 35.32025 -99.89684 33994 ft 404 kts 251°
2026-05-08 07:34 35.30264 -99.96306 33994 ft 405 kts 251°
2026-05-08 07:35 35.28498 -100.02930 33994 ft 404 kts 251°
2026-05-08 07:35 35.26740 -100.09507 34001 ft 404 kts 251°
2026-05-08 07:36 35.24954 -100.16175 33989 ft 408 kts 251°
2026-05-08 07:36 35.23162 -100.22847 33963 ft 411 kts 251°
2026-05-08 07:37 35.21361 -100.29538 33961 ft 409 kts 251°
2026-05-08 07:37 35.19558 -100.36217 33967 ft 408 kts 251°
2026-05-08 07:38 35.17763 -100.42852 33970 ft 408 kts 251°
2026-05-08 07:38 35.15967 -100.49474 33972 ft 407 kts 251°
2026-05-08 07:39 35.14157 -100.56132 33978 ft 407 kts 251°
2026-05-08 07:39 35.12354 -100.62745 33982 ft 406 kts 251°
2026-05-08 07:40 35.10532 -100.69408 33997 ft 407 kts 251°
2026-05-08 07:40 35.08863 -100.75505 33995 ft 406 kts 251°
2026-05-08 07:41 35.07238 -100.81425 33997 ft 406 kts 251°
2026-05-08 07:41 35.05415 -100.88053 33999 ft 406 kts 250°
2026-05-08 07:42 35.03596 -100.94648 34003 ft 406 kts 250°
2026-05-08 07:42 35.01767 -101.01263 34007 ft 406 kts 250°
2026-05-08 07:43 34.99946 -101.07834 34009 ft 406 kts 250°
2026-05-08 07:43 34.98106 -101.14459 34011 ft 406 kts 250°
2026-05-08 07:44 34.96261 -101.21085 34018 ft 407 kts 250°
2026-05-08 07:44 34.94421 -101.27678 34024 ft 408 kts 250°
2026-05-08 07:45 34.92568 -101.34300 34025 ft 408 kts 250°
2026-05-08 07:45 34.90718 -101.40900 34026 ft 408 kts 250°
2026-05-08 07:46 34.88859 -101.47510 34037 ft 408 kts 250°
2026-05-08 07:46 34.86979 -101.54180 34037 ft 409 kts 250°
2026-05-08 07:47 34.85117 -101.60773 34022 ft 408 kts 250°
2026-05-08 07:47 34.83248 -101.67371 34018 ft 407 kts 250°
2026-05-08 07:48 34.81372 -101.73985 34024 ft 407 kts 250°
2026-05-08 07:48 34.79505 -101.80548 34032 ft 407 kts 250°
2026-05-08 07:49 34.77623 -101.87149 34040 ft 406 kts 250°
2026-05-08 07:49 34.75751 -101.93699 34046 ft 406 kts 250°
2026-05-08 07:50 34.73871 -102.00262 34049 ft 405 kts 250°
2026-05-08 07:50 34.71998 -102.06783 34052 ft 405 kts 250°
2026-05-08 07:51 34.70101 -102.13373 34044 ft 408 kts 250°
2026-05-08 07:51 34.68206 -102.19945 34036 ft 409 kts 250°
2026-05-08 07:52 34.66293 -102.26562 34036 ft 408 kts 250°
2026-05-08 07:52 34.64385 -102.33145 34040 ft 408 kts 250°
2026-05-08 07:53 34.62484 -102.39690 34041 ft 407 kts 250°
2026-05-08 07:53 34.60567 -102.46272 34043 ft 407 kts 250°
2026-05-08 07:54 34.58660 -102.52808 34043 ft 408 kts 250°
2026-05-08 07:54 34.56742 -102.59366 34044 ft 408 kts 250°
2026-05-08 07:55 34.54803 -102.65977 34045 ft 409 kts 249°
2026-05-08 07:55 34.52864 -102.72576 34053 ft 409 kts 249°
2026-05-08 07:56 34.50934 -102.79131 34058 ft 410 kts 249°
2026-05-08 07:56 34.48617 -102.85505 34046 ft 410 kts 234°
2026-05-08 07:57 34.45068 -102.90983 34058 ft 413 kts 233°
2026-05-08 07:57 34.41512 -102.96555 34061 ft 412 kts 234°
2026-05-08 07:58 34.37987 -103.02090 34058 ft 411 kts 234°
2026-05-08 07:58 34.34450 -103.07638 34056 ft 411 kts 234°
2026-05-08 07:59 34.30930 -103.13151 34056 ft 411 kts 234°
2026-05-08 07:59 34.27396 -103.18676 34052 ft 410 kts 234°
2026-05-08 08:00 34.23878 -103.24169 34047 ft 411 kts 234°
2026-05-08 08:00 34.20332 -103.29697 34040 ft 410 kts 234°
2026-05-08 08:01 34.16812 -103.35175 34033 ft 410 kts 234°
2026-05-08 08:01 34.13280 -103.40663 34028 ft 409 kts 234°
2026-05-08 08:02 34.09768 -103.46114 34024 ft 409 kts 234°
2026-05-08 08:02 34.06239 -103.51582 34023 ft 408 kts 234°
2026-05-08 08:03 34.02718 -103.57030 34024 ft 407 kts 234°
2026-05-08 08:03 33.99201 -103.62462 34025 ft 406 kts 234°
2026-05-08 08:04 33.95702 -103.67857 34039 ft 406 kts 233°
2026-05-08 08:04 33.92170 -103.73299 34037 ft 404 kts 233°
2026-05-08 08:05 33.88674 -103.78674 34046 ft 402 kts 233°
2026-05-08 08:05 33.85196 -103.84014 34048 ft 402 kts 233°
2026-05-08 08:06 33.81694 -103.89384 34046 ft 402 kts 233°
2026-05-08 08:06 33.78212 -103.94714 34037 ft 402 kts 233°
2026-05-08 08:07 33.74707 -104.00073 34028 ft 402 kts 233°
2026-05-08 08:07 33.71228 -104.05383 34020 ft 402 kts 233°
2026-05-08 08:08 33.67725 -104.10723 34013 ft 402 kts 233°
2026-05-08 08:08 33.64222 -104.16054 34021 ft 403 kts 233°
2026-05-08 08:09 33.60722 -104.21375 34033 ft 404 kts 233°
2026-05-08 08:09 33.57195 -104.26726 34032 ft 404 kts 233°
2026-05-08 08:10 33.53681 -104.32051 34030 ft 404 kts 233°
2026-05-08 08:10 33.50148 -104.37397 34025 ft 404 kts 233°
2026-05-08 08:11 33.46603 -104.42754 34019 ft 405 kts 233°
2026-05-08 08:11 33.43060 -104.48099 34015 ft 405 kts 233°
2026-05-08 08:12 33.39514 -104.53441 34015 ft 406 kts 233°
2026-05-08 08:12 33.35964 -104.58781 34020 ft 406 kts 233°
2026-05-08 08:13 33.32023 -104.63691 34016 ft 411 kts 217°
2026-05-08 08:13 33.27205 -104.67554 34036 ft 413 kts 217°
2026-05-08 08:14 33.22386 -104.71525 34042 ft 412 kts 217°
2026-05-08 08:14 33.17609 -104.75469 34049 ft 412 kts 217°
2026-05-08 08:15 33.12842 -104.79402 34058 ft 413 kts 217°
2026-05-08 08:15 33.08050 -104.83351 34069 ft 412 kts 217°
2026-05-08 08:16 33.03292 -104.87266 34082 ft 412 kts 217°
2026-05-08 08:16 32.98500 -104.91203 34094 ft 412 kts 217°
2026-05-08 08:17 32.93716 -104.95129 33931 ft 415 kts 217°
2026-05-08 08:17 32.91348 -104.97070 33649 ft 408 kts 217°
2026-05-08 08:17 32.88963 -104.99024 33085 ft 411 kts 217°
2026-05-08 08:17 32.86615 -105.00944 32860 ft 402 kts 217°
2026-05-08 08:18 32.84249 -105.02881 32183 ft 405 kts 217°
2026-05-08 08:18 32.81925 -105.04783 31568 ft 403 kts 217°
2026-05-08 08:18 32.79595 -105.06687 31137 ft 397 kts 217°
2026-05-08 08:18 32.77288 -105.08570 30595 ft 396 kts 217°
2026-05-08 08:19 32.75007 -105.10432 30142 ft 392 kts 217°
2026-05-08 08:19 32.72762 -105.12264 29769 ft 386 kts 217°
2026-05-08 08:19 32.70507 -105.14053 29283 ft 384 kts 213°
2026-05-08 08:19 32.68198 -105.15665 28949 ft 379 kts 214°
2026-05-08 08:20 32.65907 -105.17309 28368 ft 380 kts 213°
2026-05-08 08:20 32.63653 -105.18916 27872 ft 379 kts 213°
2026-05-08 08:20 32.61352 -105.20557 27223 ft 382 kts 214°
2026-05-08 08:20 32.59041 -105.22208 26823 ft 377 kts 213°
2026-05-08 08:21 32.56771 -105.23824 26180 ft 378 kts 213°
2026-05-08 08:21 32.54542 -105.25409 25811 ft 372 kts 213°
2026-05-08 08:21 32.52304 -105.27002 25356 ft 367 kts 213°
2026-05-08 08:21 32.50111 -105.28561 25043 ft 359 kts 213°
2026-05-08 08:22 32.47955 -105.30094 24425 ft 362 kts 213°
2026-05-08 08:22 32.45754 -105.31658 23879 ft 361 kts 213°
2026-05-08 08:22 32.43592 -105.33195 23290 ft 361 kts 213°
2026-05-08 08:22 32.41453 -105.34712 22875 ft 357 kts 213°
2026-05-08 08:23 32.39314 -105.36232 22336 ft 355 kts 213°
2026-05-08 08:23 32.37203 -105.37728 22006 ft 349 kts 213°
2026-05-08 08:23 32.35072 -105.39239 21404 ft 351 kts 213°
2026-05-08 08:23 32.32989 -105.40714 20975 ft 350 kts 213°
2026-05-08 08:24 32.30896 -105.42197 20430 ft 350 kts 213°
2026-05-08 08:24 32.28802 -105.43679 19936 ft 348 kts 213°
2026-05-08 08:24 32.26722 -105.45152 19452 ft 346 kts 213°
2026-05-08 08:24 32.24630 -105.46631 19023 ft 342 kts 213°
2026-05-08 08:25 32.22583 -105.48077 18521 ft 341 kts 213°
2026-05-08 08:25 32.20556 -105.49509 18102 ft 337 kts 213°
2026-05-08 08:25 32.18548 -105.50926 17768 ft 330 kts 212°
2026-05-08 08:25 32.16577 -105.52318 17359 ft 331 kts 212°
2026-05-08 08:26 32.14590 -105.53750 17058 ft 324 kts 216°
2026-05-08 08:26 32.12820 -105.55460 16661 ft 328 kts 221°
2026-05-08 08:26 32.11086 -105.57169 16454 ft 323 kts 220°
2026-05-08 08:26 32.09348 -105.58894 15934 ft 330 kts 220°
2026-05-08 08:27 32.07595 -105.60624 15593 ft 325 kts 220°
2026-05-08 08:27 32.05838 -105.62355 15091 ft 326 kts 220°
2026-05-08 08:27 32.04108 -105.64059 14710 ft 322 kts 220°
2026-05-08 08:27 32.02391 -105.65749 14288 ft 321 kts 220°